TimeEDT,TemperatureF,Dew PointF,Humidity,Sea Level PressureIn,VisibilityMPH,Wind Direction,Wind SpeedMPH,Gust SpeedMPH,PrecipitationIn,Events,Conditions,WindDirDegrees,DateUTC
12:15 AM,51.8,48.2,88,30.15,10.0,North,4.6,-,N/A,,Clear,350,2013-08-23 04:15:00
12:35 AM,51.8,48.2,88,30.15,10.0,NNW,3.5,-,N/A,,Clear,330,2013-08-23 04:35:00
12:55 AM,51.8,50.0,94,30.15,10.0,Calm,Calm,-,N/A,,Clear,0,2013-08-23 04:55:00
1:15 AM,51.8,46.4,82,30.16,10.0,NNW,4.6,-,N/A,,Clear,330,2013-08-23 05:15:00
1:35 AM,51.8,48.2,88,30.16,10.0,NW,4.6,-,N/A,,Clear,320,2013-08-23 05:35:00
1:55 AM,51.8,48.2,88,30.16,10.0,NW,4.6,-,N/A,,Clear,320,2013-08-23 05:55:00
2:15 AM,51.8,46.4,82,30.16,10.0,NW,3.5,-,N/A,,Clear,320,2013-08-23 06:15:00
2:35 AM,51.8,48.2,88,30.16,10.0,Calm,Calm,-,N/A,,Clear,0,2013-08-23 06:35:00
2:55 AM,51.8,48.2,88,30.16,10.0,Calm,Calm,-,N/A,,Clear,0,2013-08-23 06:55:00
3:15 AM,50.0,46.4,87,30.16,10.0,Calm,Calm,-,N/A,,Clear,0,2013-08-23 07:15:00
3:35 AM,48.2,46.4,93,30.16,10.0,Calm,Calm,-,N/A,,Clear,0,2013-08-23 07:35:00
3:55 AM,50.0,46.4,87,30.16,10.0,NNW,3.5,-,N/A,,Clear,330,2013-08-23 07:55:00
4:15 AM,48.2,44.6,87,30.17,10.0,NNW,4.6,-,N/A,,Clear,330,2013-08-23 08:15:00
4:35 AM,51.8,48.2,88,30.17,10.0,NNW,6.9,-,N/A,,Clear,340,2013-08-23 08:35:00
4:55 AM,50.0,46.4,87,30.18,10.0,NW,3.5,-,N/A,,Clear,320,2013-08-23 08:55:00
5:15 AM,48.2,46.4,93,30.18,10.0,NW,5.8,-,N/A,,Clear,310,2013-08-23 09:15:00
5:35 AM,48.2,44.6,87,30.18,10.0,NW,4.6,-,N/A,,Clear,310,2013-08-23 09:35:00
5:55 AM,46.4,44.6,93,30.18,10.0,NNW,4.6,-,N/A,,Clear,330,2013-08-23 09:55:00
6:15 AM,46.4,44.6,93,30.18,10.0,NNW,4.6,-,N/A,,Clear,330,2013-08-23 10:15:00
6:35 AM,46.4,44.6,93,30.18,10.0,Calm,Calm,-,N/A,,Clear,0,2013-08-23 10:35:00
6:55 AM,46.4,44.6,93,30.19,10.0,NNW,3.5,-,N/A,,Clear,330,2013-08-23 10:55:00
7:15 AM,48.2,44.6,87,30.19,10.0,Calm,Calm,-,N/A,,Clear,0,2013-08-23 11:15:00
7:35 AM,51.8,46.4,82,30.20,10.0,NW,3.5,-,N/A,,Clear,320,2013-08-23 11:35:00
7:55 AM,51.8,46.4,82,30.20,10.0,NW,3.5,-,N/A,,Clear,320,2013-08-23 11:55:00
8:15 AM,53.6,48.2,82,30.21,10.0,NW,4.6,-,N/A,,Clear,310,2013-08-23 12:15:00
8:35 AM,55.4,51.8,88,30.21,10.0,NW,3.5,-,N/A,,Clear,310,2013-08-23 12:35:00
8:55 AM,57.2,51.8,82,30.21,10.0,Calm,Calm,-,N/A,,Clear,0,2013-08-23 12:55:00
9:15 AM,60.8,53.6,77,30.21,10.0,North,5.8,-,N/A,,Clear,10,2013-08-23 13:15:00
9:35 AM,62.6,53.6,72,30.21,10.0,NNE,5.8,-,N/A,,Clear,20,2013-08-23 13:35:00
9:55 AM,64.4,55.4,73,30.21,10.0,North,3.5,-,N/A,,Clear,10,2013-08-23 13:55:00
10:15 AM,64.4,55.4,73,30.21,10.0,East,3.5,-,N/A,,Clear,80,2013-08-23 14:15:00
10:35 AM,66.2,55.4,68,30.22,10.0,East,4.6,-,N/A,,Clear,80,2013-08-23 14:35:00
10:55 AM,68.0,57.2,68,30.22,10.0,East,3.5,-,N/A,,Clear,80,2013-08-23 14:55:00
11:15 AM,68.0,57.2,68,30.22,10.0,East,3.5,-,N/A,,Clear,80,2013-08-23 15:15:00
11:35 AM,69.8,57.2,64,30.22,10.0,ENE,3.5,-,N/A,,Clear,60,2013-08-23 15:35:00
11:55 AM,69.8,55.4,60,30.22,10.0,ENE,4.6,-,N/A,,Clear,70,2013-08-23 15:55:00
12:15 PM,71.6,53.6,53,30.22,10.0,ESE,6.9,-,N/A,,Clear,110,2013-08-23 16:15:00
12:35 PM,71.6,55.4,57,30.22,10.0,SE,5.8,-,N/A,,Clear,130,2013-08-23 16:35:00
12:55 PM,71.6,59.0,64,30.22,10.0,SSE,6.9,-,N/A,,Clear,150,2013-08-23 16:55:00
1:15 PM,71.6,57.2,60,30.21,10.0,SE,8.1,-,N/A,,Clear,140,2013-08-23 17:15:00
1:35 PM,69.8,59.0,68,30.21,10.0,SE,9.2,-,N/A,,Clear,140,2013-08-23 17:35:00
1:55 PM,69.8,57.2,64,30.21,10.0,SSE,10.4,-,N/A,,Clear,150,2013-08-23 17:55:00
2:15 PM,69.8,59.0,68,30.20,10.0,SSE,10.4,-,N/A,,Clear,160,2013-08-23 18:15:00
2:35 PM,69.8,57.2,64,30.21,10.0,SE,9.2,-,N/A,,Clear,140,2013-08-23 18:35:00
2:55 PM,69.8,57.2,64,30.20,10.0,SSE,8.1,-,N/A,,Clear,160,2013-08-23 18:55:00
3:15 PM,71.6,57.2,60,30.19,10.0,SE,9.2,-,N/A,,Clear,140,2013-08-23 19:15:00
3:35 PM,71.6,57.2,60,30.19,10.0,SE,8.1,-,N/A,,Clear,140,2013-08-23 19:35:00
3:55 PM,71.6,57.2,60,30.19,10.0,SE,8.1,-,N/A,,Clear,140,2013-08-23 19:55:00
4:15 PM,71.6,55.4,57,30.18,10.0,SSE,9.2,-,N/A,,Clear,160,2013-08-23 20:15:00
4:35 PM,71.6,55.4,57,30.17,10.0,SE,10.4,-,N/A,,Clear,140,2013-08-23 20:35:00
4:55 PM,71.6,59.0,64,30.17,10.0,SSE,10.4,-,N/A,,Clear,150,2013-08-23 20:55:00
5:15 PM,71.6,57.2,60,30.16,10.0,SSE,9.2,-,N/A,,Clear,150,2013-08-23 21:15:00
5:35 PM,71.6,57.2,60,30.16,10.0,SSE,10.4,-,N/A,,Clear,160,2013-08-23 21:35:00
5:55 PM,71.6,55.4,57,30.16,10.0,SSE,9.2,-,N/A,,Clear,160,2013-08-23 21:55:00
6:15 PM,71.6,55.4,57,30.16,10.0,SSE,9.2,-,N/A,,Clear,150,2013-08-23 22:15:00
6:35 PM,69.8,55.4,60,30.16,10.0,SSE,6.9,-,N/A,,Clear,150,2013-08-23 22:35:00
6:55 PM,69.8,55.4,60,30.16,10.0,SSE,6.9,-,N/A,,Clear,160,2013-08-23 22:55:00
7:15 PM,69.8,57.2,64,30.16,10.0,SE,8.1,-,N/A,,Clear,140,2013-08-23 23:15:00
7:35 PM,68.0,60.8,78,30.16,10.0,South,3.5,-,N/A,,Clear,170,2013-08-23 23:35:00
7:55 PM,69.8,59.0,68,30.15,10.0,SSE,5.8,-,N/A,,Clear,150,2013-08-23 23:55:00
8:15 PM,68.0,57.2,68,30.15,10.0,SSE,3.5,-,N/A,,Clear,160,2013-08-24 00:15:00
8:35 PM,68.0,57.2,68,30.16,10.0,South,3.5,-,N/A,,Clear,180,2013-08-24 00:35:00
8:55 PM,66.2,57.2,73,30.15,10.0,SSE,3.5,-,N/A,,Clear,160,2013-08-24 00:55:00
9:15 PM,60.8,57.2,88,30.16,10.0,Calm,Calm,-,N/A,,Clear,0,2013-08-24 01:15:00
9:35 PM,60.8,55.4,82,30.16,10.0,Calm,Calm,-,N/A,,Clear,0,2013-08-24 01:35:00
9:55 PM,59.0,55.4,88,30.16,10.0,Calm,Calm,-,N/A,,Clear,0,2013-08-24 01:55:00
10:15 PM,57.2,55.4,94,30.17,10.0,Calm,Calm,-,N/A,,Clear,0,2013-08-24 02:15:00
10:35 PM,55.4,53.6,94,30.17,10.0,Calm,Calm,-,N/A,,Clear,0,2013-08-24 02:35:00
10:55 PM,57.2,53.6,88,30.16,10.0,Calm,Calm,-,N/A,,Clear,0,2013-08-24 02:55:00
11:15 PM,55.4,53.6,94,30.16,5.0,Calm,Calm,-,N/A,,Clear,0,2013-08-24 03:15:00
11:35 PM,55.4,53.6,94,30.16,10.0,Calm,Calm,-,N/A,,Clear,0,2013-08-24 03:35:00
11:55 PM,53.6,51.8,94,30.16,10.0,Calm,Calm,-,N/A,,Clear,0,2013-08-24 03:55:00